Back to catalog

FENGYUN 1C DEB

AlivePO
NORAD 37694·DEBRIS·🇨🇳 China

Launched May 10, 1999 from Taiyuan Satellite Launch Center

Loading…

Next Passes (next 24 hours)

TLE

FreshSource: Space-Track

Epoch: Sep 13, 2026, 08:34 UTC

1 37694U 99025ELK 26256.35733947  .00001985  00000-0  88299-3 0  9998
2 37694  98.1836 307.7623 0144075  13.5577  46.4860 14.18510330555956

Track FENGYUN 1C DEB in real time with AllMySat

Download on the App Store